Lid_Strength_Index
-1 -1 -0 -0 0 0 1 1 1 1 2 2 2 3 4 4 4 8 10 6 6 3 4 10 10 11 11 11 10 9 11 14 13 13 12 10 9 10 11 10 12 12 12 12 11
-1 -1 -1 -1 -0 0 0 1 1 1 1 1 2 2 3 4 8 10 6 3 2 1 9 11 11 12 14 12 11 10 12 12 10 10 10 9 11 11 12 12 12 13 13 12 11
-1 -1 -1 -1 -0 0 0 1 1 1 1 2 1 1 2 4 11 11 4 3 2 0 9 10 11 12 14 13 11 11 12 10 10 9 9 10 12 11 12 12 11 10 12 12 12
-2 -1 -1 -1 -1 -0 0 1 1 1 1 2 2 1 1 6 16 11 3 3 1 6 9 11 12 13 14 15 13 13 11 9 9 8 10 11 10 12 11 10 9 9 12 12 12
-2 -1 -1 -1 -1 -1 -0 0 0 1 1 2 2 1 4 9 10 7 4 3 6 9 10 11 13 13 15 14 14 13 12 11 9 9 10 11 11 11 11 9 11 11 11 12 11
-1 -1 -1 -1 -1 -1 -1 -1 -0 -0 1 1 1 1 6 12 6 9 9 9 9 10 11 11 12 12 13 14 14 13 13 13 12 11 10 11 11 11 9 10 9 10 10 11 11
-0 -1 -1 -1 -1 -1 -1 -1 -1 -0 0 1 1 3 7 9 6 6 10 11 11 10 11 10 11 12 13 14 13 14 15 15 14 13 12 12 13 13 9 9 9 9 10 11 11
0 0 -1 -1 -1 -1 -1 -1 -1 -1 -0 -0 1 4 9 6 6 8 9 12 11 10 10 10 10 11 13 13 14 16 17 18 15 13 12 12 15 12 10 11 11 11 11 11 12
1 1 0 -1 -1 -1 -1 -1 -1 -1 -0 0 4 6 10 5 11 9 10 12 11 11 11 9 10 13 13 16 18 18 20 19 17 14 14 14 16 13 14 13 13 13 13 12 11
0 0 0 0 -1 -1 -1 -1 -0 1 2 2 3 10 9 11 11 11 12 10 11 11 11 12 13 16 17 17 20 19 19 18 19 16 15 16 16 14 14 14 14 13 13 13 12
0 0 0 0 -0 -1 2 4 8 8 8 10 9 11 11 11 10 12 12 11 11 12 16 14 16 18 16 15 16 18 18 18 19 16 15 17 16 15 13 15 15 14 13 13 12
0 -0 -0 0 -1 1 3 7 8 7 11 9 9 8 7 11 13 12 11 14 13 16 14 16 17 15 15 15 16 17 18 18 18 16 16 18 18 17 16 15 15 13 13 13 13
1 -0 -0 -0 0 3 5 5 5 7 13 12 10 11 11 9 12 12 11 13 15 16 15 17 17 15 15 16 17 17 17 18 18 18 17 20 18 19 17 16 15 14 13 14 14
1 0 -1 0 3 5 6 4 5 7 19 15 13 11 12 11 14 11 10 12 14 16 15 16 15 17 17 17 16 18 16 16 17 18 20 20 22 21 18 17 17 16 17 16 16
2 -0 0 1 5 6 5 5 6 9 22 13 14 10 12 13 14 14 10 12 15 15 15 18 17 17 17 17 16 17 16 16 16 18 19 22 23 22 21 19 17 17 17 17 17
2 2 1 3 5 6 5 4 6 18 24 17 14 15 15 14 14 13 13 11 12 14 15 16 16 16 16 17 15 16 17 18 19 20 24 21 21 20 20 18 19 17 16 16 17
4 3 4 5 7 4 4 6 15 20 15 17 16 15 15 15 15 15 15 17 17 19 19 18 18 17 16 17 16 17 19 21 23 23 24 23 22 18 18 18 18 17 17 18 17
4 4 5 6 5 3 5 11 19 19 18 12 14 14 16 14 15 15 16 18 16 17 18 19 21 18 17 17 17 18 17 20 24 25 23 21 23 20 18 18 17 17 17 18 17
4 9 7 5 4 3 8 15 15 15 12 14 13 16 17 14 15 16 18 18 16 15 18 19 19 18 17 17 16 18 19 16 19 22 22 21 21 18 18 19 19 18 18 18 17
10 9 8 4 3 5 10 14 14 10 10 11 15 13 15 15 16 16 16 15 15 14 14 16 20 19 18 17 17 17 16 19 19 24 25 22 23 21 20 19 19 19 18 17 18
11 15 10 4 4 8 14 19 15 10 8 11 12 14 14 16 15 16 15 13 14 14 14 16 16 20 19 20 19 19 19 18 18 18 22 26 22 19 18 17 18 18 17 16 16
15 20 10 4 15 16 15 15 9 11 9 9 9 11 12 13 14 16 15 13 11 13 15 14 16 20 21 20 19 20 18 16 20 23 22 22 22 19 18 18 18 18 16 16 16
19 16 8 5 20 20 17 13 10 10 10 10 10 10 9 12 14 13 13 13 13 13 15 14 17 22 20 20 19 22 19 18 18 18 22 22 21 18 18 18 18 17 16 16 16
15 19 17 9 10 14 19 17 16 10 9 9 11 10 11 12 11 14 12 10 10 11 10 11 15 19 21 20 19 21 20 18 18 20 20 21 21 19 18 17 16 15 15 16 17
11 16 17 22 20 17 13 13 14 15 13 9 11 11 13 16 16 14 12 12 11 10 11 12 17 21 19 18 18 18 19 19 19 18 20 18 18 17 17 16 15 15 16 16 17
11 14 14 20 17 14 15 18 14 13 14 15 12 12 13 15 15 15 15 14 14 13 13 13 17 19 21 16 16 18 18 19 19 18 17 17 19 16 15 15 15 15 15 16 17
8 9 10 12 18 17 18 14 13 13 13 10 11 12 16 13 11 12 12 12 13 15 15 15 16 18 23 17 17 20 19 19 19 19 16 19 16 14 15 14 13 13 14 16 17